Powrót do katalogu

COSMOS 1604

AktywnyMilitariaHEO
NORAD 15350·PAYLOAD·🇷🇺 Russia

Wystrzelony Oct 4, 1984 z Plesetsk Cosmodrome

Loading…

Następne Przeloty (najbliższe 24 godziny)

TLE

ŚwieżeSource: Space-Track

Epoka: Sep 8, 2026, 09:45 UTC

1 15350U 84107A   26251.40672565  .00000307  00000-0  00000-0 0  9995
2 15350  72.5590 352.9933 5392570 322.6126   9.9637  2.00830522307052

Śledź COSMOS 1604 w czasie rzeczywistym z AllMySat

Download on the App Store